AMX538 MMTJ-PHTO

Flight info

Callsign AMX538
Flight time N/A
Altitude 38000
Route TIJ4B TIJ DCT ROSIN C1177 FICKY R578 FOOTS DCT 30N130W 27N140W/N0477F400 22N150W DCT ITO
Aircraft B772/H-SDE2E3FGHIJ5LORVWXY/LB1D1

Departure

Time N/A
Airport General Abelardo L. Rodriguez International Airport (MMTJ)

Arrival

Time 2026-04-14 16:40
Airport Hilo International Airport (PHTO)
Time Latitude Longitude Altitude Speed Heading
2026-04-14 14:47 25.05460 -143.17429 38170 ft 419 kts 251°
2026-04-14 14:47 25.03107 -143.23309 38172 ft 419 kts 250°
2026-04-14 14:48 25.00752 -143.29185 38167 ft 421 kts 250°
2026-04-14 14:48 24.98389 -143.35075 38166 ft 422 kts 250°
2026-04-14 14:49 24.96017 -143.40976 38169 ft 420 kts 250°
2026-04-14 14:49 24.93651 -143.46855 38166 ft 420 kts 250°
2026-04-14 14:50 24.91279 -143.52742 38164 ft 421 kts 250°
2026-04-14 14:50 24.88909 -143.58615 38161 ft 419 kts 250°
2026-04-14 14:51 24.86700 -143.64505 38156 ft 420 kts 252°
2026-04-14 14:51 24.84566 -143.70499 38176 ft 418 kts 252°
2026-04-14 14:52 24.82451 -143.76431 38173 ft 418 kts 252°
2026-04-14 14:52 24.80326 -143.82387 38170 ft 420 kts 252°
2026-04-14 14:53 24.78208 -143.88309 38170 ft 416 kts 252°
2026-04-14 14:53 24.76092 -143.94218 38168 ft 416 kts 252°
2026-04-14 14:54 24.73963 -144.00154 38168 ft 416 kts 252°
2026-04-14 14:54 24.71840 -144.06068 38168 ft 417 kts 252°
2026-04-14 14:55 24.69715 -144.11978 38166 ft 417 kts 252°
2026-04-14 14:55 24.67584 -144.17899 38163 ft 415 kts 252°
2026-04-14 14:56 24.64387 -144.26759 38163 ft 417 kts 252°
2026-04-14 14:56 24.62256 -144.32654 38161 ft 416 kts 252°
2026-04-14 14:57 24.60131 -144.38528 38165 ft 417 kts 252°
2026-04-14 14:57 24.57987 -144.44444 38166 ft 418 kts 252°
2026-04-14 14:58 24.55829 -144.50391 38165 ft 417 kts 252°
2026-04-14 14:58 24.53691 -144.56273 38164 ft 418 kts 252°
2026-04-14 14:59 24.51529 -144.62215 38163 ft 418 kts 252°
2026-04-14 14:59 24.49375 -144.68123 38178 ft 417 kts 251°
2026-04-14 15:00 24.47220 -144.74030 38177 ft 419 kts 251°
2026-04-14 15:00 24.45052 -144.79959 38176 ft 418 kts 251°
2026-04-14 15:01 24.42899 -144.85843 38181 ft 417 kts 251°
2026-04-14 15:01 24.40739 -144.91736 38182 ft 418 kts 251°
2026-04-14 15:02 24.38581 -144.97613 38182 ft 416 kts 251°
2026-04-14 15:02 24.36418 -145.03500 38180 ft 416 kts 251°
2026-04-14 15:03 24.34261 -145.09360 38180 ft 417 kts 251°
2026-04-14 15:03 24.32102 -145.15216 38178 ft 416 kts 251°
2026-04-14 15:04 24.29919 -145.21132 38178 ft 415 kts 251°
2026-04-14 15:04 24.27758 -145.26978 38172 ft 417 kts 251°
2026-04-14 15:05 24.25585 -145.32848 38172 ft 415 kts 251°
2026-04-14 15:05 24.23412 -145.38715 38170 ft 418 kts 251°
2026-04-14 15:06 24.21235 -145.44577 38155 ft 415 kts 251°
2026-04-14 15:06 24.19054 -145.50447 38147 ft 417 kts 251°
2026-04-14 15:07 24.16873 -145.56308 38145 ft 416 kts 251°
2026-04-14 15:07 24.14689 -145.62169 38145 ft 416 kts 251°
2026-04-14 15:08 24.12507 -145.68016 38157 ft 419 kts 251°
2026-04-14 15:08 24.10311 -145.73891 38159 ft 418 kts 250°
2026-04-14 15:09 24.08117 -145.79753 38157 ft 417 kts 251°
2026-04-14 15:09 24.05925 -145.85603 38154 ft 417 kts 251°
2026-04-14 15:10 24.03718 -145.91487 38153 ft 417 kts 251°
2026-04-14 15:10 24.01504 -145.97380 38153 ft 419 kts 250°
2026-04-14 15:11 23.99298 -146.03244 38162 ft 419 kts 250°
2026-04-14 15:11 23.97093 -146.09096 38170 ft 418 kts 250°
2026-04-14 15:12 23.94891 -146.14931 38170 ft 417 kts 251°
2026-04-14 15:12 23.92680 -146.20785 38170 ft 417 kts 251°
2026-04-14 15:13 23.90472 -146.26619 38168 ft 415 kts 251°
2026-04-14 15:13 23.88253 -146.32478 38167 ft 416 kts 250°
2026-04-14 15:14 23.86050 -146.38287 38165 ft 415 kts 250°
2026-04-14 15:14 23.83835 -146.44118 38166 ft 415 kts 250°
2026-04-14 15:15 23.81636 -146.49902 38162 ft 416 kts 250°
2026-04-14 15:15 23.79413 -146.55740 38161 ft 416 kts 250°
2026-04-14 15:16 23.77208 -146.61520 38157 ft 414 kts 250°
2026-04-14 15:16 23.74997 -146.67313 38173 ft 413 kts 250°
2026-04-14 15:17 23.72773 -146.73131 38171 ft 415 kts 250°
2026-04-14 15:17 23.70559 -146.78912 38172 ft 414 kts 250°
2026-04-14 15:18 23.68346 -146.84686 38168 ft 414 kts 250°
2026-04-14 15:18 23.66126 -146.90471 38168 ft 415 kts 250°
2026-04-14 15:19 23.63901 -146.96262 38169 ft 416 kts 250°
2026-04-14 15:19 23.61681 -147.02029 38163 ft 413 kts 250°
2026-04-14 15:20 23.59460 -147.07791 38155 ft 415 kts 250°
2026-04-14 15:20 23.57232 -147.13565 38153 ft 414 kts 250°
2026-04-14 15:21 23.54995 -147.19356 38146 ft 413 kts 250°
2026-04-14 15:21 23.52767 -147.25117 38150 ft 415 kts 250°
2026-04-14 15:22 23.50531 -147.30890 38147 ft 412 kts 250°
2026-04-14 15:22 23.48305 -147.36630 38148 ft 416 kts 250°
2026-04-14 15:23 23.46062 -147.42406 38144 ft 412 kts 250°
2026-04-14 15:23 23.43830 -147.48146 38142 ft 413 kts 250°
2026-04-14 15:24 23.41593 -147.53889 38139 ft 412 kts 250°
2026-04-14 15:24 23.39354 -147.59634 38140 ft 413 kts 250°
2026-04-14 15:25 23.37122 -147.65353 38139 ft 412 kts 249°
2026-04-14 15:25 23.34886 -147.71075 38155 ft 413 kts 249°
2026-04-14 15:26 23.32638 -147.76820 38157 ft 412 kts 249°
2026-04-14 15:26 23.30400 -147.82530 38153 ft 412 kts 249°
2026-04-14 15:27 23.28160 -147.88240 38155 ft 411 kts 249°
2026-04-14 15:27 23.25924 -147.93933 38153 ft 411 kts 249°
2026-04-14 15:28 23.23683 -147.99632 38154 ft 413 kts 249°
2026-04-14 15:28 23.21427 -148.05357 38153 ft 412 kts 249°
2026-04-14 15:29 23.19182 -148.11052 38151 ft 408 kts 249°
2026-04-14 15:29 23.16936 -148.16742 38148 ft 410 kts 249°
2026-04-14 15:30 23.14700 -148.22398 38146 ft 409 kts 249°
2026-04-14 15:30 23.12451 -148.28082 38147 ft 411 kts 249°
2026-04-14 15:31 23.10196 -148.33772 38144 ft 409 kts 249°
2026-04-14 15:31 23.07945 -148.39447 38147 ft 414 kts 249°
2026-04-14 15:32 23.05652 -148.45218 38142 ft 417 kts 249°
2026-04-14 15:32 23.03361 -148.50981 38139 ft 416 kts 249°
2026-04-14 15:33 23.01069 -148.56734 38141 ft 416 kts 249°
2026-04-14 15:33 22.99944 -148.59554 38139 ft 405 kts 249°
2026-04-14 15:33 22.98830 -148.62347 38138 ft 408 kts 249°
2026-04-14 15:34 22.96566 -148.68019 38158 ft 413 kts 249°
2026-04-14 15:34 22.94273 -148.73755 38156 ft 414 kts 248°
2026-04-14 15:35 22.91971 -148.79507 38153 ft 419 kts 249°
2026-04-14 15:35 22.89651 -148.85301 38156 ft 425 kts 249°
2026-04-14 15:36 22.87286 -148.91194 38153 ft 418 kts 249°
2026-04-14 15:36 22.85009 -148.96861 38150 ft 412 kts 249°
2026-04-14 15:37 22.82709 -149.02580 38148 ft 414 kts 248°
2026-04-14 15:37 22.80408 -149.08293 38144 ft 414 kts 248°
2026-04-14 15:38 22.78113 -149.13985 38142 ft 414 kts 248°
2026-04-14 15:38 22.75806 -149.19699 38140 ft 414 kts 249°
2026-04-14 15:39 22.73504 -149.25395 38136 ft 414 kts 248°
2026-04-14 15:39 22.71199 -149.31091 38133 ft 414 kts 249°
2026-04-14 15:40 22.68876 -149.36826 38130 ft 414 kts 249°
2026-04-14 15:40 22.66575 -149.42497 38128 ft 414 kts 248°
2026-04-14 15:41 22.64261 -149.48193 38123 ft 415 kts 249°
2026-04-14 15:41 22.61953 -149.53871 38117 ft 414 kts 248°
2026-04-14 15:42 22.59620 -149.59602 38115 ft 413 kts 248°
2026-04-14 15:42 22.57304 -149.65283 38118 ft 414 kts 248°
2026-04-14 15:43 22.54988 -149.70958 38133 ft 415 kts 248°
2026-04-14 15:43 22.52658 -149.76659 38129 ft 413 kts 248°
2026-04-14 15:44 22.50334 -149.82341 38122 ft 414 kts 248°
2026-04-14 15:44 22.48000 -149.88039 38121 ft 414 kts 248°
2026-04-14 15:45 22.45667 -149.93729 38118 ft 415 kts 248°
2026-04-14 15:45 22.43339 -149.99400 38121 ft 414 kts 247°
2026-04-14 15:46 22.41003 -150.05083 38117 ft 415 kts 248°
2026-04-14 15:46 22.39000 -150.09950 38117 ft 416 kts 247°
2026-04-14 15:47 22.36654 -150.15643 38117 ft 415 kts 247°
2026-04-14 15:47 22.34308 -150.21330 38112 ft 417 kts 247°
2026-04-14 15:48 22.31953 -150.27035 38111 ft 415 kts 247°
2026-04-14 15:48 22.29592 -150.32747 38110 ft 415 kts 247°
2026-04-14 15:49 22.26863 -150.38238 38103 ft 419 kts 242°
2026-04-14 15:49 22.24008 -150.43680 38107 ft 416 kts 243°
2026-04-14 15:50 22.21454 -150.49298 38103 ft 416 kts 246°
2026-04-14 15:50 22.19015 -150.54976 38103 ft 416 kts 247°
2026-04-14 15:51 22.16593 -150.60609 38100 ft 416 kts 246°
2026-04-14 15:51 22.14156 -150.66270 38113 ft 416 kts 246°
2026-04-14 15:52 22.11713 -150.71939 38117 ft 416 kts 246°
2026-04-14 15:52 22.09281 -150.77576 38115 ft 417 kts 246°
2026-04-14 15:53 22.06842 -150.83220 38112 ft 416 kts 246°
2026-04-14 15:53 22.04405 -150.88856 38113 ft 416 kts 246°
2026-04-14 15:54 22.00756 -150.97282 38111 ft 416 kts 246°
2026-04-14 15:55 21.98310 -151.02922 38108 ft 416 kts 246°
2026-04-14 15:55 21.95845 -151.08601 38106 ft 416 kts 246°
2026-04-14 15:56 21.93400 -151.14226 38104 ft 417 kts 246°
2026-04-14 15:56 21.90942 -151.19875 38105 ft 415 kts 246°
2026-04-14 15:57 21.88493 -151.25494 38109 ft 415 kts 246°
2026-04-14 15:57 21.86045 -151.31108 38107 ft 414 kts 246°
2026-04-14 15:58 21.83588 -151.36736 38106 ft 415 kts 246°
2026-04-14 15:58 21.81147 -151.42319 38106 ft 414 kts 246°
2026-04-14 15:59 21.78691 -151.47932 38105 ft 414 kts 246°
2026-04-14 15:59 21.76242 -151.53522 38103 ft 415 kts 246°
2026-04-14 16:00 21.73791 -151.59109 38103 ft 414 kts 246°
2026-04-14 16:00 21.71326 -151.64725 38101 ft 416 kts 246°
2026-04-14 16:01 21.68856 -151.70344 38117 ft 415 kts 245°
2026-04-14 16:01 21.66397 -151.75932 38116 ft 413 kts 245°
2026-04-14 16:02 21.63927 -151.81540 38114 ft 414 kts 245°
2026-04-14 16:02 21.61461 -151.87131 38114 ft 414 kts 245°
2026-04-14 16:03 21.59008 -151.92685 38113 ft 414 kts 245°
2026-04-14 16:03 21.56362 -151.98180 38112 ft 415 kts 238°
2026-04-14 16:04 21.53140 -152.03323 38111 ft 416 kts 238°
2026-04-14 16:04 21.49891 -152.08478 38109 ft 416 kts 237°
2026-04-14 16:05 21.46649 -152.13615 38110 ft 416 kts 237°
2026-04-14 16:05 21.43418 -152.18732 38106 ft 416 kts 238°
2026-04-14 16:06 21.40179 -152.23854 38105 ft 415 kts 238°
2026-04-14 16:06 21.36935 -152.28983 38106 ft 415 kts 238°
2026-04-14 16:07 21.33696 -152.34097 38104 ft 416 kts 238°
2026-04-14 16:07 21.30471 -152.39185 38103 ft 415 kts 237°
2026-04-14 16:08 21.27211 -152.44321 38101 ft 415 kts 238°
2026-04-14 16:08 21.23972 -152.49422 38101 ft 416 kts 238°
2026-04-14 16:09 21.20726 -152.54529 38101 ft 415 kts 238°
2026-04-14 16:09 21.17478 -152.59634 38098 ft 416 kts 237°
2026-04-14 16:10 21.14224 -152.64743 38098 ft 415 kts 237°
2026-04-14 16:10 21.10958 -152.69867 38114 ft 417 kts 237°
2026-04-14 16:11 21.07700 -152.74974 38111 ft 416 kts 237°
2026-04-14 16:11 21.04443 -152.80074 38110 ft 416 kts 237°
2026-04-14 16:12 21.01164 -152.85204 38110 ft 417 kts 237°
2026-04-14 16:12 20.97888 -152.90324 38107 ft 418 kts 237°
2026-04-14 16:13 20.94612 -152.95441 38106 ft 416 kts 237°
2026-04-14 16:13 20.91369 -153.00499 37789 ft 409 kts 237°
2026-04-14 16:13 20.89771 -153.02991 36987 ft 408 kts 237°
2026-04-14 16:14 20.88167 -153.05490 36176 ft 407 kts 237°
2026-04-14 16:14 20.86563 -153.07989 35400 ft 406 kts 237°
2026-04-14 16:14 20.84965 -153.10478 34674 ft 420 kts 237°
2026-04-14 16:14 20.83266 -153.13126 33872 ft 438 kts 237°
2026-04-14 16:15 20.81558 -153.15785 33274 ft 436 kts 237°
2026-04-14 16:15 20.79851 -153.18437 32874 ft 427 kts 237°
2026-04-14 16:15 20.78172 -153.21046 32463 ft 424 kts 237°
2026-04-14 16:15 20.76511 -153.23627 31997 ft 425 kts 237°
2026-04-14 16:16 20.74824 -153.26247 31500 ft 425 kts 237°
2026-04-14 16:16 20.73158 -153.28832 31008 ft 423 kts 237°
2026-04-14 16:16 20.71486 -153.31427 30515 ft 421 kts 237°
2026-04-14 16:16 20.69826 -153.34000 30031 ft 421 kts 237°
2026-04-14 16:17 20.68185 -153.36543 29558 ft 420 kts 237°
2026-04-14 16:17 20.66516 -153.39130 29081 ft 420 kts 237°
2026-04-14 16:17 20.64862 -153.41692 28605 ft 418 kts 237°
2026-04-14 16:17 20.63234 -153.44211 28134 ft 415 kts 237°
2026-04-14 16:18 20.61595 -153.46747 27658 ft 412 kts 237°
2026-04-14 16:18 20.59981 -153.49243 27188 ft 408 kts 237°
2026-04-14 16:18 20.58360 -153.51747 26709 ft 405 kts 237°
2026-04-14 16:18 20.56779 -153.54192 26244 ft 403 kts 237°
2026-04-14 16:19 20.55183 -153.56656 25771 ft 400 kts 237°
2026-04-14 16:19 20.53610 -153.59084 25300 ft 399 kts 237°
2026-04-14 16:19 20.52045 -153.61499 24828 ft 397 kts 237°
2026-04-14 16:19 20.50488 -153.63901 24358 ft 394 kts 236°
2026-04-14 16:20 20.48905 -153.66342 23883 ft 392 kts 236°
2026-04-14 16:20 20.47321 -153.68784 23420 ft 389 kts 236°
2026-04-14 16:20 20.45787 -153.71147 22954 ft 387 kts 236°
2026-04-14 16:20 20.44272 -153.73480 22484 ft 384 kts 236°
2026-04-14 16:21 20.42742 -153.75835 22026 ft 382 kts 236°
2026-04-14 16:21 20.41250 -153.78130 21568 ft 380 kts 236°
2026-04-14 16:21 20.39742 -153.80449 21094 ft 378 kts 236°
2026-04-14 16:21 20.38257 -153.82733 20621 ft 376 kts 236°
2026-04-14 16:22 20.36779 -153.85005 20152 ft 374 kts 236°
2026-04-14 16:22 20.35284 -153.87302 19674 ft 373 kts 236°
2026-04-14 16:22 20.33815 -153.89557 19203 ft 371 kts 236°
2026-04-14 16:22 20.32363 -153.91786 18735 ft 369 kts 236°
2026-04-14 16:23 20.30892 -153.94043 18260 ft 368 kts 236°
2026-04-14 16:23 20.29450 -153.96256 17790 ft 366 kts 236°
2026-04-14 16:23 20.27996 -153.98485 17316 ft 364 kts 236°
2026-04-14 16:23 20.26553 -154.00696 16815 ft 363 kts 236°
2026-04-14 16:24 20.25113 -154.02902 16312 ft 362 kts 236°
2026-04-14 16:24 20.23691 -154.05081 15830 ft 361 kts 236°
2026-04-14 16:24 20.22259 -154.07272 15353 ft 359 kts 235°
2026-04-14 16:24 20.20838 -154.09448 14877 ft 357 kts 235°
2026-04-14 16:25 20.19420 -154.11616 14405 ft 355 kts 235°
2026-04-14 16:25 20.18007 -154.13777 13936 ft 354 kts 235°
2026-04-14 16:25 20.16603 -154.15926 13466 ft 352 kts 235°
2026-04-14 16:25 20.15225 -154.18031 13006 ft 351 kts 234°
2026-04-14 16:26 20.13833 -154.20158 12540 ft 349 kts 234°
2026-04-14 16:26 20.12435 -154.22292 12069 ft 348 kts 234°
2026-04-14 16:26 20.11063 -154.24388 11607 ft 347 kts 234°
2026-04-14 16:26 20.09689 -154.26485 11141 ft 346 kts 234°
2026-04-14 16:27 20.08314 -154.28581 10677 ft 345 kts 234°
2026-04-14 16:27 20.06954 -154.30655 10473 ft 335 kts 234°
2026-04-14 16:27 20.05652 -154.32642 10328 ft 315 kts 234°
2026-04-14 16:27 20.04442 -154.34486 10322 ft 296 kts 234°
2026-04-14 16:28 20.03291 -154.36241 10206 ft 287 kts 234°
2026-04-14 16:28 20.02154 -154.37973 10081 ft 279 kts 234°
2026-04-14 16:28 20.01068 -154.39627 9943 ft 272 kts 234°
2026-04-14 16:28 19.99955 -154.41321 9637 ft 284 kts 234°
2026-04-14 16:29 19.98810 -154.43060 9289 ft 289 kts 234°
2026-04-14 16:29 19.97659 -154.44812 8960 ft 289 kts 234°
2026-04-14 16:29 19.96520 -154.46542 8648 ft 289 kts 234°
2026-04-14 16:29 19.95366 -154.48296 8330 ft 289 kts 234°
2026-04-14 16:30 19.94220 -154.50038 8017 ft 288 kts 234°
2026-04-14 16:30 19.93073 -154.51779 7672 ft 283 kts 235°
2026-04-14 16:30 19.91965 -154.53461 7386 ft 274 kts 235°
2026-04-14 16:30 19.90889 -154.55095 7145 ft 269 kts 235°
2026-04-14 16:31 19.89817 -154.56722 6836 ft 270 kts 235°
2026-04-14 16:31 19.88738 -154.58359 6527 ft 271 kts 235°
2026-04-14 16:31 19.87645 -154.60016 6219 ft 272 kts 236°
2026-04-14 16:31 19.86556 -154.61667 5919 ft 272 kts 235°
2026-04-14 16:32 19.85468 -154.63316 5620 ft 273 kts 235°
2026-04-14 16:32 19.84385 -154.64957 5321 ft 273 kts 235°
2026-04-14 16:32 19.83279 -154.66634 5013 ft 274 kts 234°
2026-04-14 16:32 19.82190 -154.68283 4714 ft 274 kts 234°
2026-04-14 16:33 19.81105 -154.69925 4419 ft 274 kts 234°
2026-04-14 16:33 19.80003 -154.71593 4119 ft 273 kts 234°
2026-04-14 16:33 19.78920 -154.73230 3824 ft 273 kts 234°
2026-04-14 16:33 19.77822 -154.74892 3507 ft 272 kts 233°
2026-04-14 16:34 19.76751 -154.76511 3293 ft 259 kts 233°
2026-04-14 16:34 19.75757 -154.78014 3258 ft 244 kts 233°
2026-04-14 16:34 19.74789 -154.79477 3303 ft 237 kts 233°
2026-04-14 16:34 19.73857 -154.80885 3186 ft 227 kts 233°
2026-04-14 16:35 19.72967 -154.82227 3082 ft 215 kts 233°
2026-04-14 16:35 19.72313 -154.83592 2991 ft 204 kts 258°
2026-04-14 16:35 19.72228 -154.85063 2843 ft 196 kts 268°
2026-04-14 16:35 19.72207 -154.86475 2649 ft 191 kts 268°
2026-04-14 16:36 19.72179 -154.87863 2439 ft 183 kts 264°
2026-04-14 16:36 19.72088 -154.89188 2244 ft 179 kts 267°
2026-04-14 16:36 19.72094 -154.90501 2046 ft 176 kts 270°
2026-04-14 16:36 19.72114 -154.91808 1834 ft 176 kts 269°
2026-04-14 16:37 19.72120 -154.93068 1648 ft 171 kts 269°
2026-04-14 16:37 19.72122 -154.94342 1446 ft 171 kts 269°
2026-04-14 16:37 19.72124 -154.95621 1244 ft 170 kts 269°
2026-04-14 16:37 19.72139 -154.96835 1006 ft 163 kts 270°
2026-04-14 16:38 19.72141 -154.98003 886 ft 147 kts 268°
2026-04-14 16:38 19.72134 -154.99045 688 ft 136 kts 268°
2026-04-14 16:38 19.72135 -155.00020 523 ft 130 kts 269°
2026-04-14 16:38 19.72131 -155.00970 356 ft 126 kts 268°
2026-04-14 16:39 19.72133 -155.01907 247 ft 128 kts 270°
2026-04-14 16:39 19.72142 -155.02855 98 ft 127 kts 269°
2026-04-14 16:39 19.72140 -155.03720 64 ft 100 kts 270°
2026-04-14 16:39 19.72137 -155.04298 62 ft 55 kts 270°
2026-04-14 16:40 19.72136 -155.04576 62 ft 30 kts 270°
2026-04-14 16:40 19.72136 -155.04788 60 ft 15 kts 270°
2026-04-14 16:40 19.72119 -155.04904 61 ft 15 kts 228°
2026-04-14 16:40 19.72062 -155.04923 62 ft 4 kts 180°
2026-04-14 16:41 19.72028 -155.04910 62 ft 5 kts 133°
2026-04-14 16:41 19.72012 -155.04858 63 ft 10 kts 97°
2026-04-14 16:41 19.72010 -155.04761 62 ft 17 kts 90°
2026-04-14 16:41 19.72009 -155.04602 62 ft 22 kts 89°
2026-04-14 16:42 19.72010 -155.04431 62 ft 23 kts 90°
2026-04-14 16:42 19.72010 -155.04262 63 ft 17 kts 90°
2026-04-14 16:42 19.72010 -155.04135 64 ft 17 kts 92°
2026-04-14 16:42 19.71949 -155.04063 65 ft 13 kts 178°
2026-04-14 16:43 19.71856 -155.04065 67 ft 13 kts 180°
2026-04-14 16:43 19.71752 -155.04066 69 ft 15 kts 180°
2026-04-14 16:43 19.71674 -155.04068 71 ft 9 kts 185°
2026-04-14 16:43 19.71639 -155.04117 72 ft 10 kts 263°
2026-04-14 16:44 19.71633 -155.04176 72 ft 7 kts 239°
2026-04-14 16:44 19.71603 -155.04184 74 ft 4 kts 180°
2026-04-14 16:44 19.71579 -155.04184 75 ft 3 kts 180°
2026-04-14 16:45 19.71544 -155.04184 76 ft 0 kts 180°